WetterOnline ( http://www.wetteronline.de )

Wetter aktuell Hohenpeißenberg

Aktuelles Wetter: Hohenpeißenberg (986m)

6-stündlich | Neueste Meldungen
Ortszeit Temperatur Wetter
Di, 21.08. 14:00 23.6° C leicht bewölkt
Di, 21.08. 8:00 17.7° C fast wolkenlos
Di, 21.08. 2:00 18.4° C wolkig
Mo, 20.08. 20:00 22.8° C leicht bewölkt
Mo, 20.08. 14:00 23.8° C leicht bewölkt
Mo, 20.08. 8:00 18.0° C fast wolkenlos
Mo, 20.08. 2:00 18.7° C wolkenlos
So, 19.08. 20:00 22.7° C leicht bewölkt
Ortszeit Temperatur Wetter
Di, 21.08. 18:00 24.0° C leicht bewölkt
Di, 21.08. 17:40 24.2° C wolkenlos
Di, 21.08. 17:30 24.5° C leicht bewölkt
Di, 21.08. 17:20 24.5° C wolkenlos
Di, 21.08. 17:10 24.3° C wolkenlos
Di, 21.08. 17:00 24.4° C leicht bewölkt
Di, 21.08. 16:50 24.4° C wolkenlos
Di, 21.08. 16:30 24.2° C leicht bewölkt
Di, 21.08. 16:00 24.4° C leicht bewölkt
Di, 21.08. 15:30 24.0° C leicht bewölkt
Di, 21.08. 15:00 24.2° C leicht bewölkt
Ortszeit Relative Feuchte Sichtweite
Di, 21.08. 14:00 54% 35 km
Di, 21.08. 8:00 70% 40 km
Di, 21.08. 2:00 65% 45 km
Mo, 20.08. 20:00 49% 30 km
Mo, 20.08. 14:00 49% 28 km
Mo, 20.08. 8:00 67% 25 km
Mo, 20.08. 2:00 66% 50 km
So, 19.08. 20:00 48% 25 km
Ortszeit Relative Feuchte Sichtweite
Di, 21.08. 18:00 48% 30 km
Di, 21.08. 17:40 50% -
Di, 21.08. 17:30 48% 30 km
Di, 21.08. 17:20 48% -
Di, 21.08. 17:10 48% -
Di, 21.08. 17:00 47% 30 km
Di, 21.08. 16:50 47% -
Di, 21.08. 16:30 48% 40 km
Di, 21.08. 16:00 49% 40 km
Di, 21.08. 15:30 50% 30 km
Di, 21.08. 15:00 52% 30 km
Ortszeit Niederschlagsmenge Niederschlagsart
Di, 21.08. 14:00 0.0 l/m2 in 6 Std. -
Di, 21.08. 8:00 0.0 l/m2 in 12 Std. -
Di, 21.08. 2:00 0.0 l/m2 in 6 Std. -
Mo, 20.08. 20:00 0.0 l/m2 in 12 Std. -
Mo, 20.08. 14:00 0.0 l/m2 in 6 Std. -
Mo, 20.08. 8:00 0.0 l/m2 in 12 Std. -
Mo, 20.08. 2:00 0.0 l/m2 in 6 Std. -
So, 19.08. 20:00 0.0 l/m2 in 12 Std. -
Ortszeit Niederschlagsmenge Niederschlagsart
Di, 21.08. 18:00 0.0 l/m2 in 1 Std. -
Di, 21.08. 17:40 keine Meldung -
Di, 21.08. 17:30 0.0 l/m2 in 1 Std. -
Di, 21.08. 17:20 keine Meldung -
Di, 21.08. 17:10 keine Meldung -
Di, 21.08. 17:00 0.0 l/m2 in 1 Std. -
Di, 21.08. 16:50 keine Meldung -
Di, 21.08. 16:30 0.0 l/m2 in 1 Std. -
Di, 21.08. 16:00 0.0 l/m2 in 1 Std. -
Di, 21.08. 15:30 0.0 l/m2 in 1 Std. -
Di, 21.08. 15:00 0.0 l/m2 in 1 Std. -
Ortszeit Stärke Spitze Richtung
km/h Bft. km/h Grad Sektor
Di, 21.08. 14:00 13 3 26 30° NO
Di, 21.08. 8:00 9 2 22 110° O
Di, 21.08. 2:00 13 3 28 30° NO
Mo, 20.08. 20:00 7 2 20 50° NO
Mo, 20.08. 14:00 9 2 19 360° N
Mo, 20.08. 8:00 7 2 22 310° NW
Mo, 20.08. 2:00 17 3 28 270° W
So, 19.08. 20:00 7 2 28 20° N
Ortszeit Stärke Spitze Richtung
km/h Bft. km/h Grad Sektor
Di, 21.08. 18:00 11 2 22 20° N
Di, 21.08. 17:40 11 2 - 30° NO
Di, 21.08. 17:30 11 2 22 20° N
Di, 21.08. 17:20 11 2 - 20° N
Di, 21.08. 17:10 11 2 - 10° N
Di, 21.08. 17:00 9 2 20 30° NO
Di, 21.08. 16:50 9 2 - 30° NO
Di, 21.08. 16:30 13 3 20 20° N
Di, 21.08. 16:00 14 3 25 20° N
Di, 21.08. 15:30 14 3 25 50° NO
Di, 21.08. 15:00 13 3 26 30° NO
Ortszeit Untergrenze Bedeckung Gattung
total tief tief mittel hoch
Di, 21.08. 14:00 1800 m 2/8 2/8 Cu - -
Di, 21.08. 8:00 9000 m 1/8 0/8 - - -
Di, 21.08. 2:00 2700 m 7/8 1/8 - - -
Mo, 20.08. 20:00 1500 m 5/8 5/8 Cu - -
Mo, 20.08. 14:00 1500 m 3/8 3/8 Cu - -
Mo, 20.08. 8:00 1500 m 1/8 1/8 Cu Ac -
Mo, 20.08. 2:00 - 0/8 0/8 - - -
So, 19.08. 20:00 - 2/8 2/8 Cb - Ci
Ortszeit Bedeckungsgrad in Achtel und Wolkenuntergrenze
Di, 21.08. 18:00 3(1800m)
Di, 21.08. 17:40 keine Wolken
Di, 21.08. 17:30 3(1800m)
Di, 21.08. 17:20 keine Wolken
Di, 21.08. 17:10 keine Wolken
Di, 21.08. 17:00 3(1800m)
Di, 21.08. 16:50 keine Wolken
Di, 21.08. 16:30 2(1800m)
Di, 21.08. 16:00 2(1800m)
Di, 21.08. 15:30 2(1800m)
Di, 21.08. 15:00 2(1800m)
Ortszeit Stationsdruck (hPa) Tendenz (hPa in 3 Std.)
Di, 21.08. 14:00 909 - 0,5
Di, 21.08. 8:00 910 + 0,5
Di, 21.08. 2:00 910 + 0,4
Mo, 20.08. 20:00 908 - 0,2
Mo, 20.08. 14:00 909 - 0,5
Mo, 20.08. 8:00 910 + 0,3
Mo, 20.08. 2:00 910 + 0,1
So, 19.08. 20:00 909 - 0,2
Ortszeit Stationsdruck (hPa) Tendenz (hPa in 3 Std.)
Di, 21.08. 18:00 908 - 0,9
Di, 21.08. 17:40 908 keine Meldung
Di, 21.08. 17:30 908 - 1,0
Di, 21.08. 17:20 908 keine Meldung
Di, 21.08. 17:10 908 keine Meldung
Di, 21.08. 17:00 908 - 1,0
Di, 21.08. 16:50 908 keine Meldung
Di, 21.08. 16:30 908 - 1,1
Di, 21.08. 16:00 908 - 1,1
Di, 21.08. 15:30 908 - 1,1
Di, 21.08. 15:00 909 - 1,0
Ortszeit Schneehöhe (cm)
Di, 21.08. 14:00 0
Di, 21.08. 8:00 0
Di, 21.08. 2:00 -
Mo, 20.08. 20:00 0
Mo, 20.08. 14:00 0
Mo, 20.08. 8:00 0
Mo, 20.08. 2:00 -
So, 19.08. 20:00 0
Ortszeit Schneehöhe (cm)
Di, 21.08. 18:00 -
Di, 21.08. 17:40 -
Di, 21.08. 17:30 -
Di, 21.08. 17:20 -
Di, 21.08. 17:10 -
Di, 21.08. 17:00 -
Di, 21.08. 16:50 -
Di, 21.08. 16:30 -
Di, 21.08. 16:00 -
Di, 21.08. 15:30 -
Di, 21.08. 15:00 -
Link zu dieser Seite / Seite empfehlen

Das Wetter in ...